Location: ??????
(38.0131°N, 23.7723°E)
Time: 01:23:57
(UTC+00:00)

H-2A R/B - Pass Details

Date: 17 October 2021
Orbit: 577 x 654 km, 98.5° (Epoch: 04 December)

Event Time Altitude Azimuth Distance (km) Brightness Sun altitude
Rises 16:54:39 0° 20° (NNE) 2,801 5.2 -14.6°
Reaches altitude 10° 16:56:53 10° 26° (NNE) 1,901 4.3 -15.0°
Maximum altitude 17:00:49 45° 100° (E) 796 2.2 -15.8°
Drops below altitude 10° 17:04:48 10° 174° (S) 1,912 4.5 -16.6°
Sets 17:07:02 0° 181° (S) 2,820 5.4 -17.0°
